Wind_Speed
32 31 31 31 31 31 31 32 32 32 32 31 31 30 31 32 33 33 32 32 33 34 35 35 35 36 36 36 37 37 37 37 38 39 39 39 39 38
30 29 29 30 30 30 31 31 32 32 31 31 31 30 30 31 31 31 31 32 33 34 34 34 34 34 35 35 36 36 37 37 38 38 38 37 36 35
28 27 26 27 28 29 30 30 30 31 30 30 30 30 30 30 30 30 30 31 32 33 33 33 33 34 35 35 36 36 36 36 36 36 35 34 33 33
25 26 26 26 27 27 27 27 29 29 28 27 28 28 27 27 28 29 30 30 32 32 32 32 33 33 34 34 34 34 35 34 34 33 32 32 31 30
23 24 24 24 24 24 25 24 25 26 25 25 26 26 26 26 27 28 29 30 31 31 32 32 32 32 32 32 33 33 32 31 31 30 29 29 28 28
21 21 20 21 21 22 23 23 23 23 23 23 24 25 25 26 26 28 29 30 30 30 30 30 31 31 31 30 30 30 29 29 28 27 26 26 26 25
20 19 19 19 20 21 22 22 22 22 22 22 23 23 24 25 26 27 28 29 29 28 28 28 29 29 28 28 28 27 27 26 26 25 24 24 24 23
17 17 18 19 19 19 19 19 20 20 21 21 22 23 23 24 26 26 27 27 27 27 27 27 26 25 25 26 26 25 25 24 24 23 23 22 22 21
16 16 16 15 16 16 17 18 18 18 19 19 20 21 23 24 25 25 25 25 25 24 24 24 23 23 23 23 23 23 22 22 21 21 21 21 20 20
14 14 14 14 14 14 14 15 16 17 18 19 20 22 23 23 23 23 23 23 23 22 22 22 21 21 21 21 21 20 20 20 20 19 19 18 18 18
12 12 13 13 13 13 14 15 16 17 18 18 19 20 20 20 20 20 20 21 20 20 20 19 19 19 19 19 18 18 17 18 18 17 17 17 16 16
11 12 11 11 12 12 13 14 15 16 16 16 17 17 17 17 17 18 18 18 18 18 18 17 17 17 17 16 16 16 16 16 16 16 16 16 15 15
10 10 10 10 11 11 11 12 13 14 14 15 15 15 15 15 15 16 16 16 16 16 15 15 15 15 15 14 14 14 14 15 15 15 15 15 14 14
9 9 8 9 10 10 10 11 11 12 12 13 13 13 13 13 13 13 13 13 13 13 13 13 13 13 13 13 13 13 13 14 14 14 14 14 15 15
7 7 7 8 9 9 9 10 10 10 10 10 11 11 11 11 11 11 11 11 11 11 11 11 12 12 12 12 13 13 13 14 14 14 14 14 15 15
5 5 6 6 7 7 7 7 8 8 8 8 8 8 8 9 9 9 10 10 10 10 10 10 10 11 11 11 12 12 13 14 14 15 15 15 15 15
3 4 4 4 4 5 6 6 6 6 6 6 7 7 8 8 8 9 9 9 9 9 9 10 11 11 11 12 12 13 14 14 15 15 15 15 15 16
2 2 3 3 4 4 5 5 5 6 6 7 7 8 8 8 8 9 9 9 9 9 10 11 11 11 12 12 13 13 14 15 15 15 15 15 16 17
5 5 5 5 5 6 6 6 6 7 7 8 8 8 9 9 9 9 9 9 10 10 11 11 12 12 12 13 13 14 15 15 15 16 16 17 17 18
8 8 8 8 8 8 8 8 8 8 8 9 9 9 9 9 9 10 10 10 10 11 11 12 12 13 13 14 14 15 16 16 17 17 17 18 18 19
10 10 10 10 10 10 10 10 9 9 9 10 9 9 9 10 10 10 11 11 11 12 12 13 14 14 14 15 15 16 17 17 18 18 19 19 19 19
12 11 11 11 11 11 11 11 11 10 10 10 10 10 10 11 11 11 12 12 13 13 14 14 15 15 16 16 17 17 18 18 18 19 20 20 20 20
12 12 12 12 12 12 12 12 12 12 11 11 11 11 12 12 12 13 13 14 14 15 15 16 16 16 17 17 18 18 19 19 19 19 19 20 21 21
Wind_Direction
257 256 256 257 257 256 256 258 258 260 263 263 266 268 271 272 273 275 278 281 284 286 287 288 289 292 293 294 296 298 298 299 299 300 300 299 299 299
254 253 255 256 257 258 258 259 258 262 265 264 265 266 269 271 273 277 279 283 286 287 288 289 291 293 295 297 298 299 299 300 300 300 300 300 300 300
254 254 254 253 256 258 258 258 259 261 262 264 267 269 271 273 277 279 282 284 285 288 289 290 293 295 297 298 299 300 301 301 301 302 302 301 301 301
256 255 256 258 257 258 260 262 261 261 264 267 271 271 274 276 280 280 281 284 286 289 291 294 296 298 300 301 302 302 302 302 302 302 302 302 302 302
262 262 262 263 260 259 260 261 263 265 270 272 273 274 277 278 281 283 285 287 290 293 295 297 298 300 301 301 302 302 303 303 303 302 302 302 303 303
266 266 265 263 263 263 265 267 270 273 277 277 278 280 282 284 286 289 291 292 294 296 298 299 299 300 301 301 302 302 303 303 303 302 303 303 304 304
265 265 266 267 267 268 271 271 273 275 278 280 282 285 288 290 291 293 294 296 297 299 300 301 301 302 301 302 302 303 303 303 303 304 305 306 306 307
266 266 268 267 265 268 269 271 274 277 280 282 285 289 292 293 295 297 299 300 300 301 301 301 301 301 301 303 304 304 304 304 305 306 307 308 309 309
265 267 269 268 266 270 274 277 279 281 284 288 290 292 294 296 298 299 300 301 302 302 301 302 301 300 302 304 304 305 305 307 308 309 310 310 311 312
266 269 271 272 274 279 282 284 286 289 291 292 293 295 298 300 300 300 300 301 301 301 301 302 302 303 304 306 306 307 309 311 312 313 313 315 317 319
261 265 271 274 278 283 285 288 291 293 295 295 297 297 298 300 301 301 300 300 301 301 302 303 304 304 306 308 309 311 313 316 317 316 317 318 320 321
264 268 275 277 281 283 286 289 292 295 296 296 297 298 300 302 301 301 301 302 303 303 305 305 306 306 308 309 312 314 316 318 318 319 319 320 321 322
272 276 278 283 289 290 291 294 296 298 299 300 302 302 304 305 304 304 304 306 306 307 307 307 308 309 310 311 312 314 317 319 320 321 322 322 323 325
280 283 287 292 295 295 297 300 302 303 304 306 308 308 308 308 310 311 312 313 311 310 310 311 311 312 312 314 316 318 320 321 322 322 321 322 324 325
280 283 287 292 297 299 301 304 307 309 309 309 310 312 315 318 319 320 320 319 318 319 319 319 320 320 318 318 319 321 322 323 322 322 323 323 324 326
287 288 293 300 306 308 311 317 320 321 321 321 323 328 330 331 331 331 330 330 330 330 331 331 332 330 328 326 325 325 326 325 324 323 324 325 326 326
303 309 318 326 330 332 334 338 342 345 345 345 346 347 346 345 343 342 341 340 340 339 338 338 337 336 334 332 329 328 328 327 326 326 326 327 328 328
19 12 9 8 7 7 8 9 8 7 7 7 5 4 3 1 359 359 357 353 350 347 344 342 341 340 338 336 334 332 331 330 329 328 328 327 327 327
65 62 61 57 51 46 41 36 32 30 27 24 21 18 16 13 10 6 3 360 357 353 351 348 346 344 342 340 338 337 335 332 330 328 327 326 325 325
78 75 70 64 58 54 50 47 44 40 36 32 28 24 20 17 12 8 5 2 360 357 355 352 349 346 344 342 340 337 335 332 330 327 326 325 325 325
77 74 71 67 63 58 54 51 47 41 37 33 30 26 23 19 15 11 6 3 360 357 353 350 347 345 343 341 339 336 334 332 330 329 327 327 326 326
75 73 70 67 63 59 55 52 47 43 40 36 33 29 25 19 14 10 6 2 357 353 350 348 346 343 341 339 337 336 335 333 331 329 327 327 326 326
72 69 67 65 62 59 55 51 48 46 43 38 33 28 22 17 12 8 4 360 356 353 351 349 347 344 341 339 338 336 335 333 331 329 327 326 326 325
Height
5789 5790 5792 5793 5795 5796 5798 5800 5802 5802 5803 5803 5804 5805 5805 5805 5805 5805 5804 5804 5803 5802 5800 5799 5797 5795 5793 5790 5788 5785 5782 5779 5775 5772 5768 5764 5760 5757
5781 5783 5785 5786 5788 5789 5790 5792 5793 5794 5795 5796 5796 5797 5798 5798 5798 5797 5797 5796 5795 5794 5792 5791 5789 5787 5784 5781 5779 5776 5773 5769 5766 5762 5758 5755 5751 5747
5774 5776 5777 5779 5781 5782 5783 5785 5786 5787 5788 5788 5789 5790 5790 5790 5790 5789 5789 5788 5787 5786 5784 5782 5780 5778 5775 5773 5770 5767 5763 5760 5757 5753 5749 5746 5742 5739
5768 5770 5771 5773 5774 5776 5777 5778 5779 5780 5781 5782 5782 5783 5783 5783 5783 5782 5781 5780 5779 5777 5776 5774 5772 5769 5767 5764 5761 5758 5755 5751 5748 5744 5741 5738 5734 5731
5763 5764 5766 5767 5768 5770 5771 5772 5773 5774 5775 5776 5776 5776 5776 5776 5776 5775 5774 5773 5771 5770 5768 5765 5763 5761 5758 5756 5753 5750 5746 5743 5740 5737 5733 5730 5727 5724
5758 5759 5760 5762 5763 5764 5765 5766 5767 5768 5769 5770 5770 5770 5770 5769 5769 5768 5767 5765 5764 5762 5760 5758 5755 5753 5750 5748 5745 5742 5739 5736 5732 5729 5726 5723 5720 5717
5753 5754 5755 5757 5758 5759 5761 5762 5762 5763 5764 5764 5764 5764 5763 5763 5762 5761 5760 5758 5756 5754 5752 5750 5748 5746 5743 5740 5737 5735 5732 5729 5726 5723 5720 5717 5714 5711
5748 5749 5751 5752 5753 5754 5755 5756 5757 5758 5758 5759 5759 5758 5757 5757 5755 5754 5752 5751 5749 5747 5745 5743 5741 5739 5736 5733 5731 5728 5725 5723 5720 5717 5714 5712 5709 5706
5744 5745 5747 5748 5749 5750 5750 5751 5752 5753 5753 5753 5753 5752 5751 5750 5749 5747 5745 5744 5742 5740 5738 5736 5734 5732 5730 5727 5725 5722 5720 5717 5715 5712 5709 5706 5704 5701
5741 5742 5743 5744 5745 5746 5746 5747 5747 5748 5748 5747 5747 5746 5745 5744 5743 5741 5739 5737 5736 5734 5732 5731 5729 5727 5725 5722 5720 5717 5715 5712 5710 5707 5705 5702 5700 5697
5738 5739 5740 5741 5741 5742 5742 5743 5743 5743 5743 5742 5742 5741 5739 5738 5736 5735 5733 5732 5730 5729 5727 5725 5723 5721 5719 5717 5715 5713 5710 5708 5706 5703 5701 5698 5696 5694
5735 5736 5737 5737 5738 5738 5738 5739 5739 5739 5738 5737 5737 5736 5734 5733 5731 5730 5729 5727 5725 5724 5722 5720 5719 5717 5715 5713 5711 5709 5707 5705 5702 5700 5698 5695 5693 5691
5732 5733 5733 5734 5734 5735 5735 5735 5735 5734 5734 5733 5732 5731 5729 5728 5727 5725 5724 5723 5721 5719 5718 5716 5715 5713 5711 5710 5708 5706 5704 5702 5699 5697 5695 5693 5691 5689
5729 5730 5730 5731 5731 5731 5731 5731 5731 5730 5730 5729 5728 5727 5726 5724 5723 5722 5720 5719 5718 5716 5715 5713 5712 5710 5708 5707 5705 5703 5701 5699 5697 5695 5693 5690 5688 5686
5727 5727 5728 5728 5728 5728 5728 5728 5728 5727 5727 5726 5725 5724 5723 5721 5720 5719 5717 5716 5715 5713 5712 5710 5709 5707 5706 5704 5702 5700 5699 5696 5694 5692 5690 5688 5686 5683
5725 5726 5726 5726 5726 5726 5726 5726 5725 5725 5724 5723 5723 5722 5721 5720 5718 5717 5716 5714 5713 5712 5710 5708 5707 5705 5703 5702 5700 5698 5696 5694 5692 5690 5687 5685 5683 5681
5724 5724 5724 5724 5724 5724 5724 5724 5724 5723 5723 5722 5721 5720 5719 5718 5717 5716 5714 5713 5712 5710 5709 5707 5705 5704 5702 5700 5698 5696 5694 5692 5690 5687 5685 5683 5680 5678
5723 5723 5724 5724 5724 5724 5724 5724 5723 5723 5722 5721 5720 5719 5718 5717 5716 5715 5714 5712 5711 5709 5708 5706 5704 5703 5701 5699 5697 5694 5692 5690 5687 5685 5682 5680 5678 5675
5724 5724 5724 5724 5724 5724 5724 5724 5723 5722 5722 5721 5720 5719 5718 5717 5716 5715 5713 5712 5710 5709 5707 5705 5703 5702 5700 5698 5695 5693 5690 5688 5685 5682 5680 5677 5675 5672
5725 5725 5725 5725 5725 5725 5725 5724 5724 5723 5722 5722 5721 5720 5719 5717 5716 5715 5713 5712 5710 5708 5706 5705 5703 5700 5698 5696 5694 5691 5688 5685 5682 5680 5677 5674 5672 5669
5727 5727 5727 5727 5727 5727 5726 5725 5725 5724 5723 5722 5721 5720 5719 5718 5717 5715 5713 5712 5710 5708 5706 5704 5702 5699 5697 5694 5692 5689 5686 5683 5680 5677 5674 5671 5668 5665
5730 5730 5730 5729 5729 5729 5728 5727 5726 5726 5725 5724 5723 5721 5720 5719 5717 5715 5714 5712 5710 5708 5705 5703 5700 5698 5695 5693 5690 5687 5684 5681 5678 5674 5671 5668 5664 5661
5733 5732 5732 5732 5731 5731 5730 5729 5728 5727 5726 5725 5724 5723 5721 5719 5718 5716 5714 5712 5709 5707 5704 5702 5699 5696 5693 5690 5687 5684 5681 5678 5675 5672 5668 5664 5661 5657